Regional Weather Roundup
Issued by NWS Tampa Bay Area, FL

Home | Current Version | Previous Version | Text Only | Print | Product List | Glossary On
Versions: 1 2 3 4 5 6 7 8 9 10 11 12 13 14 15 16 17 18 19 20 21 22 23 24 25 26 27 28 29 30 31 32 33 34 35 36 37 38 39 40 41 42 43 44 45 46 47 48 49 50
000
NZUS99 KTBW 182118
RWRTBW
Regional Weather Roundup National Weather Service Ruskin Florida
500 PM EDT THU JUL 18 2019


CITY           SKY/WX    TMP DP  RH WIND       PRES   REMARKS
Cross City     FAIR      87  77  72 W8        30.05F HX  99
Williston      FAIR      91  70  49 SW5       30.04F HX  97
Ocala          FAIR      91  74  57 S6        30.05F HX 100
Crystal River  FAIR      90  72  55 W6        30.05F HX  96
Inverness      FAIR      88  77  70 CALM      30.05F HX 100
Leesburg       FAIR      92  75  57 CALM      30.07S HX 103
Orlando        PTSUNNY   82  68  62 N6        30.05F
Brooksville    FAIR      89  73  59 NW8       30.05F HX  97
Zephyrhills    PTSUNNY   90  73  55 W3        30.05F THUNDER HX  98
Lakeland       MOSUNNY   84  75  74 NW9       30.07S THUNDER
Winter Haven   FAIR      87  74  64 N5        30.05F HX  95
Bartow         PTSUNNY   91  73  55 CALM      30.04F HX 100

CITY           SKY/WX    TMP DP  RH WIND       PRES   REMARKS
Tampa Intl     PTSUNNY   89  73  59 SW8       30.06F THUNDER HX  97
Tampa Exec     FAIR      86  72  62 W5        30.06F
MacDill AFB    PTSUNNY   82  73  74 S18G25    30.08R THUNDER
Peter O Knight LGT RAIN  86  75  70 S22G28    30.08R HX  95
Plant City     LGT RAIN N/A N/A N/A MISG      30.09S
Clearwater     FAIR      90  73  57 SW7       30.05F HX  98
St Petersburg  FAIR      88  70  55 SW8       30.05S
Sarasota       LGT RAIN  78  73  84 NE6       30.06F
Sebring        FAIR      88  74  63 SE9       30.06F HX  96
Punta Gorda    FAIR      88  71  57 S8        30.07F
Ft Myers       FAIR      85  68  56 S3        30.05F
Ft Myers-RSW   FAIR      85  70  60 S8        30.06F

STATION/POSITION SKY/WX   TEMP WIND        PRES    VSBY
                          AIR  DIR/SP/G
                          (F)  (DEG/KT/KT) (MB)    (MI)
Keaton Beach               85  210/  8/ 10 1017.7F
Sand Key                   86   90/  5/  6 1016.3
039 Panama City            85  200/  4/  6 1018.1F
036 Bayport                    230/  6/  8 1018.4
003 Captiva                85  100/ 10/ 12 1017.9F
Venice                     84  170/  8/  9 1017.6F
Cedar Key                  86  260/  6/  8 1017.7F

CITY           SKY/WX    TMP DP  RH WIND       PRES   REMARKS
Tallahassee    PTSUNNY   81  75  82 SE5       30.04F
W Palm Beach   PTSUNNY   86  74  67 N3        30.07F
Miami          PTSUNNY   89  70  53 SE3       30.06F
Key West       FAIR      88  75  65 SE7       30.04F HX  97
San Juan, PR   MOSUNNY   88  75  66 E20G29    30.02F HX  97
Cancun, MX     SUNNY     90  72  55 E8        30.01S HX  96




USA.gov is the U.S. government's official web portal to all federal, state and local government web resources and services.